Time,TemperatureF,DewpointF,PressureIn,WindDirection,WindDirectionDegrees,WindSpeedMPH,WindSpeedGustMPH,Humidity,HourlyPrecipIn,Conditions,Clouds,dailyrainin,SoftwareType,DateUTC
2013-02-12 00:02:00,42.8,41.0,30.30,SSE,158,3.6,4.5,93,0.00,,,0.00,WUHU216HW,2013-02-12 08:02:00,
2013-02-12 00:07:00,43.0,41.1,30.30,SSE,158,4.3,4.3,93,0.00,,,0.00,WUHU216HW,2013-02-12 08:07:00,
2013-02-12 00:12:00,43.0,41.1,30.30,SSE,158,3.6,4.3,93,0.00,,,0.00,WUHU216HW,2013-02-12 08:12:00,
2013-02-12 00:17:00,43.0,41.1,30.30,SSE,158,4.3,4.3,93,0.00,,,0.00,WUHU216HW,2013-02-12 08:17:00,
2013-02-12 00:22:00,43.0,41.1,30.30,South,180,3.4,4.3,93,0.00,,,0.00,WUHU216HW,2013-02-12 08:22:00,
2013-02-12 00:27:00,43.2,41.3,30.30,South,180,4.7,4.7,93,0.00,,,0.00,WUHU216HW,2013-02-12 08:27:00,
2013-02-12 00:32:00,43.4,41.5,30.30,South,180,3.4,5.1,93,0.00,,,0.00,WUHU216HW,2013-02-12 08:32:00,
2013-02-12 00:37:00,43.4,41.5,30.30,SSE,158,3.4,5.1,93,0.00,,,0.00,WUHU216HW,2013-02-12 08:37:00,
2013-02-12 00:43:00,43.4,41.5,30.30,South,180,2.9,3.8,93,0.00,,,0.00,WUHU216HW,2013-02-12 08:43:00,
2013-02-12 00:48:00,43.2,41.3,30.30,SSW,203,5.4,5.8,93,0.00,,,0.00,WUHU216HW,2013-02-12 08:48:00,
2013-02-12 00:53:00,43.4,41.5,30.30,SSW,203,4.0,5.8,93,0.00,,,0.00,WUHU216HW,2013-02-12 08:53:00,
2013-02-12 00:58:00,43.4,41.5,30.30,South,180,3.6,5.4,93,0.00,,,0.00,WUHU216HW,2013-02-12 08:58:00,
2013-02-12 01:03:00,43.4,41.5,30.30,SSW,203,4.7,5.1,93,0.00,,,0.00,WUHU216HW,2013-02-12 09:03:00,
2013-02-12 01:08:00,43.2,41.3,30.30,SSW,203,4.0,5.4,93,0.00,,,0.00,WUHU216HW,2013-02-12 09:08:00,
2013-02-12 01:13:00,43.2,41.3,30.30,SSW,203,5.1,5.4,93,0.00,,,0.00,WUHU216HW,2013-02-12 09:13:00,
2013-02-12 01:18:00,43.2,41.3,30.30,South,180,3.6,5.4,93,0.00,,,0.00,WUHU216HW,2013-02-12 09:18:00,
2013-02-12 01:23:00,43.4,41.5,30.30,SSW,203,4.0,5.4,93,0.00,,,0.00,WUHU216HW,2013-02-12 09:23:00,
2013-02-12 01:28:00,43.4,41.5,30.30,SSW,203,4.7,5.1,93,0.00,,,0.00,WUHU216HW,2013-02-12 09:28:00,
2013-02-12 01:33:00,43.4,41.5,30.30,South,180,3.8,4.7,93,0.00,,,0.00,WUHU216HW,2013-02-12 09:33:00,
2013-02-12 01:38:00,43.4,41.5,30.30,South,180,3.6,4.9,93,0.00,,,0.00,WUHU216HW,2013-02-12 09:38:00,
2013-02-12 01:43:00,43.6,41.7,30.30,South,180,4.5,6.0,93,0.00,,,0.00,WUHU216HW,2013-02-12 09:43:00,
2013-02-12 01:48:00,43.6,41.7,30.30,South,180,2.5,6.0,93,0.00,,,0.00,WUHU216HW,2013-02-12 09:48:00,
2013-02-12 01:53:00,43.6,41.4,30.30,South,180,2.9,4.0,92,0.00,,,0.00,WUHU216HW,2013-02-12 09:53:00,
2013-02-12 01:58:00,43.4,41.2,30.30,SE,135,3.4,3.4,92,0.00,,,0.00,WUHU216HW,2013-02-12 09:58:00,
2013-02-12 02:03:00,43.4,41.2,30.31,SE,135,2.5,4.3,92,0.00,,,0.00,WUHU216HW,2013-02-12 10:03:00,
2013-02-12 02:08:00,43.4,41.2,30.31,SE,135,2.7,4.3,92,0.00,,,0.00,WUHU216HW,2013-02-12 10:08:00,
2013-02-12 02:13:00,43.2,41.0,30.31,SE,135,3.8,4.3,92,0.00,,,0.00,WUHU216HW,2013-02-12 10:13:00,
2013-02-12 02:18:00,43.4,41.2,30.31,ESE,113,3.4,4.0,92,0.00,,,0.00,WUHU216HW,2013-02-12 10:18:00,
2013-02-12 02:23:00,43.2,41.0,30.31,ESE,113,2.2,3.6,92,0.00,,,0.00,WUHU216HW,2013-02-12 10:23:00,
2013-02-12 02:28:00,43.2,41.0,30.32,SE,135,2.2,3.4,92,0.00,,,0.00,WUHU216HW,2013-02-12 10:28:00,
2013-02-12 02:34:00,43.4,41.2,30.32,SE,135,2.0,3.4,92,0.00,,,0.00,WUHU216HW,2013-02-12 10:34:00,
2013-02-12 02:39:00,43.4,41.2,30.32,SSE,158,2.5,3.4,92,0.00,,,0.00,WUHU216HW,2013-02-12 10:39:00,
2013-02-12 02:44:00,43.4,41.2,30.32,SE,135,1.8,2.9,92,0.00,,,0.00,WUHU216HW,2013-02-12 10:44:00,
2013-02-12 02:49:00,43.4,41.2,30.31,SSE,158,2.7,2.9,92,0.00,,,0.00,WUHU216HW,2013-02-12 10:49:00,
2013-02-12 02:54:00,43.4,41.2,30.31,South,180,3.8,4.0,92,0.00,,,0.00,WUHU216HW,2013-02-12 10:54:00,
2013-02-12 02:59:00,43.4,41.2,30.31,South,180,4.0,4.3,92,0.00,,,0.00,WUHU216HW,2013-02-12 10:59:00,
2013-02-12 03:04:00,43.4,41.5,30.31,South,180,3.4,4.9,93,0.00,,,0.00,WUHU216HW,2013-02-12 11:04:00,
2013-02-12 03:09:00,43.6,41.7,30.31,South,180,4.0,4.9,93,0.00,,,0.00,WUHU216HW,2013-02-12 11:09:00,
2013-02-12 03:15:00,43.6,41.7,30.31,South,180,4.0,4.9,93,0.00,,,0.00,WUHU216HW,2013-02-12 11:15:00,
2013-02-12 03:20:00,43.6,41.7,30.31,SSW,203,4.0,4.9,93,0.00,,,0.00,WUHU216HW,2013-02-12 11:20:00,
2013-02-12 03:25:00,43.6,41.4,30.31,SSE,158,3.4,4.9,92,0.00,,,0.00,WUHU216HW,2013-02-12 11:25:00,
2013-02-12 03:30:00,43.6,41.4,30.31,SE,135,3.4,4.9,92,0.00,,,0.00,WUHU216HW,2013-02-12 11:30:00,
2013-02-12 03:35:00,43.6,41.4,30.31,SE,135,2.0,3.4,92,0.00,,,0.00,WUHU216HW,2013-02-12 11:35:00,
2013-02-12 03:40:00,43.6,41.4,30.31,SE,135,1.8,3.4,92,0.00,,,0.00,WUHU216HW,2013-02-12 11:40:00,
2013-02-12 03:45:00,43.6,41.4,30.31,SE,135,1.8,2.5,92,0.00,,,0.00,WUHU216HW,2013-02-12 11:45:00,
2013-02-12 03:50:00,43.6,41.4,30.31,SE,135,2.5,3.1,92,0.00,,,0.00,WUHU216HW,2013-02-12 11:50:00,
2013-02-12 03:55:00,43.6,41.4,30.32,SSE,158,2.2,3.1,92,0.00,,,0.00,WUHU216HW,2013-02-12 11:55:00,
2013-02-12 04:00:00,43.6,41.4,30.32,South,180,2.5,3.1,92,0.00,,,0.00,WUHU216HW,2013-02-12 12:00:00,
2013-02-12 04:05:00,43.4,41.2,30.31,South,180,2.0,2.9,92,0.00,,,0.00,WUHU216HW,2013-02-12 12:05:00,
2013-02-12 04:10:00,43.6,41.4,30.31,South,180,4.0,4.0,92,0.00,,,0.00,WUHU216HW,2013-02-12 12:10:00,
2013-02-12 04:15:00,43.6,41.4,30.31,SE,135,3.4,4.0,92,0.00,,,0.00,WUHU216HW,2013-02-12 12:15:00,
2013-02-12 04:20:00,43.6,41.4,30.30,SSE,158,2.9,3.8,92,0.00,,,0.00,WUHU216HW,2013-02-12 12:20:00,
2013-02-12 04:25:00,43.6,41.4,30.30,ESE,113,2.0,3.8,92,0.00,,,0.00,WUHU216HW,2013-02-12 12:25:00,
2013-02-12 04:30:00,43.6,41.4,30.30,SSE,158,2.0,3.4,92,0.00,,,0.00,WUHU216HW,2013-02-12 12:30:00,
2013-02-12 04:35:00,43.6,41.4,30.31,SSE,158,2.7,3.1,92,0.00,,,0.00,WUHU216HW,2013-02-12 12:35:00,
2013-02-12 04:41:00,43.6,41.4,30.31,South,180,2.0,3.1,92,0.00,,,0.00,WUHU216HW,2013-02-12 12:41:00,
2013-02-12 04:46:00,43.6,41.4,30.31,SE,135,2.0,2.7,92,0.00,,,0.00,WUHU216HW,2013-02-12 12:46:00,
2013-02-12 04:51:00,43.6,41.4,30.31,ESE,113,2.0,2.9,92,0.00,,,0.00,WUHU216HW,2013-02-12 12:51:00,
2013-02-12 04:56:00,43.6,41.1,30.31,ENE,68,1.8,3.4,91,0.00,,,0.00,WUHU216HW,2013-02-12 12:56:00,
2013-02-12 05:01:00,43.4,41.0,30.31,ENE,68,3.4,4.0,91,0.00,,,0.00,WUHU216HW,2013-02-12 13:01:00,
2013-02-12 05:06:00,43.2,40.8,30.31,ESE,113,2.7,4.0,91,0.00,,,0.00,WUHU216HW,2013-02-12 13:06:00,
2013-02-12 05:11:00,43.2,40.8,30.31,East,90,2.2,3.4,91,0.00,,,0.00,WUHU216HW,2013-02-12 13:11:00,
2013-02-12 05:16:00,43.2,40.8,30.31,East,90,2.5,4.7,91,0.00,,,0.00,WUHU216HW,2013-02-12 13:16:00,
2013-02-12 05:21:00,43.2,40.8,30.31,ESE,113,3.1,4.7,91,0.00,,,0.00,WUHU216HW,2013-02-12 13:21:00,
2013-02-12 05:26:00,43.2,40.8,30.31,ESE,113,2.5,3.8,91,0.00,,,0.00,WUHU216HW,2013-02-12 13:26:00,
2013-02-12 05:31:00,43.2,40.8,30.31,ESE,113,1.1,2.7,91,0.00,,,0.00,WUHU216HW,2013-02-12 13:31:00,
2013-02-12 05:36:00,43.2,41.0,30.31,NE,45,1.8,2.5,92,0.00,,,0.00,WUHU216HW,2013-02-12 13:36:00,
2013-02-12 05:41:00,43.2,40.8,30.31,NE,45,1.6,3.4,91,0.00,,,0.00,WUHU216HW,2013-02-12 13:41:00,
2013-02-12 05:46:00,43.0,40.9,30.31,ESE,113,1.1,3.4,92,0.00,,,0.00,WUHU216HW,2013-02-12 13:46:00,
2013-02-12 05:51:00,43.0,40.9,30.31,East,90,0.9,1.6,92,0.00,,,0.00,WUHU216HW,2013-02-12 13:51:00,
2013-02-12 05:56:00,43.0,40.9,30.31,East,90,0.9,1.6,92,0.00,,,0.00,WUHU216HW,2013-02-12 13:56:00,
2013-02-12 06:01:00,43.0,40.9,30.31,ESE,113,0.4,1.6,92,0.00,,,0.00,WUHU216HW,2013-02-12 14:01:00,
2013-02-12 06:07:00,43.0,40.9,30.31,East,90,0.4,1.3,92,0.00,,,0.00,WUHU216HW,2013-02-12 14:07:00,
2013-02-12 06:12:00,43.0,40.9,30.31,ENE,68,1.3,1.3,92,0.00,,,0.00,WUHU216HW,2013-02-12 14:12:00,
2013-02-12 06:17:00,43.2,41.0,30.32,ESE,113,1.1,1.3,92,0.00,,,0.00,WUHU216HW,2013-02-12 14:17:00,
2013-02-12 06:22:00,43.2,41.0,30.32,SE,135,0.9,2.0,92,0.00,,,0.00,WUHU216HW,2013-02-12 14:22:00,
2013-02-12 06:27:00,43.2,41.0,30.32,ESE,113,2.2,3.1,92,0.00,,,0.00,WUHU216HW,2013-02-12 14:27:00,
2013-02-12 06:32:00,43.2,40.8,30.32,ESE,113,1.3,3.1,91,0.00,,,0.00,WUHU216HW,2013-02-12 14:32:00,
2013-02-12 06:37:00,43.2,40.8,30.32,ESE,113,0.9,2.2,91,0.00,,,0.00,WUHU216HW,2013-02-12 14:37:00,
2013-02-12 06:42:00,43.2,40.8,30.32,ESE,113,1.6,2.2,91,0.00,,,0.00,WUHU216HW,2013-02-12 14:42:00,
2013-02-12 06:48:00,43.2,40.8,30.32,ESE,113,1.1,2.2,91,0.00,,,0.00,WUHU216HW,2013-02-12 14:48:00,
2013-02-12 06:53:00,43.0,40.6,30.32,ENE,68,1.1,1.3,91,0.00,,,0.00,WUHU216HW,2013-02-12 14:53:00,
2013-02-12 06:58:00,42.8,40.7,30.33,NE,45,1.3,2.2,92,0.00,,,0.00,WUHU216HW,2013-02-12 14:58:00,
2013-02-12 07:03:00,42.8,40.7,30.33,ENE,68,1.8,2.2,92,0.00,,,0.00,WUHU216HW,2013-02-12 15:03:00,
2013-02-12 07:08:00,42.8,40.7,30.33,NE,45,1.1,2.5,92,0.00,,,0.00,WUHU216HW,2013-02-12 15:08:00,
2013-02-12 07:13:00,42.7,40.5,30.33,East,90,2.2,2.9,92,0.00,,,0.00,WUHU216HW,2013-02-12 15:13:00,
2013-02-12 07:18:00,42.7,40.5,30.33,ESE,113,1.6,3.1,92,0.00,,,0.00,WUHU216HW,2013-02-12 15:18:00,
2013-02-12 07:23:00,42.7,40.5,30.32,ESE,113,2.5,3.1,92,0.00,,,0.00,WUHU216HW,2013-02-12 15:23:00,
2013-02-12 07:28:00,42.8,40.7,30.32,SE,135,2.5,3.1,92,0.00,,,0.00,WUHU216HW,2013-02-12 15:28:00,
2013-02-12 07:33:00,42.8,41.0,30.32,SE,135,2.7,3.6,93,0.00,,,0.00,WUHU216HW,2013-02-12 15:33:00,
2013-02-12 07:38:00,43.0,41.1,30.32,SE,135,2.5,3.6,93,0.00,,,0.00,WUHU216HW,2013-02-12 15:38:00,
2013-02-12 07:43:00,43.2,41.3,30.33,SSE,158,2.7,3.4,93,0.00,,,0.00,WUHU216HW,2013-02-12 15:43:00,
2013-02-12 07:50:00,43.4,41.2,30.33,SSE,158,1.8,2.7,92,0.00,,,0.00,WUHU216HW,2013-02-12 15:50:00,
2013-02-12 07:55:00,43.6,41.4,30.33,SSW,203,2.7,2.7,92,0.00,,,0.00,WUHU216HW,2013-02-12 15:55:00,
2013-02-12 08:01:00,43.6,41.4,30.33,SSW,203,3.4,3.8,92,0.00,,,0.00,WUHU216HW,2013-02-12 16:01:00,
2013-02-12 08:06:00,43.6,41.1,30.33,South,180,4.0,7.2,91,0.00,,,0.00,WUHU216HW,2013-02-12 16:06:00,
2013-02-12 08:11:00,43.6,41.4,30.34,SSW,203,6.5,8.7,92,0.00,,,0.00,WUHU216HW,2013-02-12 16:11:00,
2013-02-12 08:16:00,43.7,41.3,30.34,South,180,3.4,8.7,91,0.00,,,0.00,WUHU216HW,2013-02-12 16:16:00,
2013-02-12 08:21:00,43.7,41.3,30.34,SSW,203,4.9,6.0,91,0.00,,,0.00,WUHU216HW,2013-02-12 16:21:00,
2013-02-12 08:26:00,43.9,41.5,30.35,SSW,203,3.4,4.9,91,0.00,,,0.00,WUHU216HW,2013-02-12 16:26:00,
2013-02-12 08:31:00,43.7,41.3,30.35,South,180,4.0,4.5,91,0.00,,,0.00,WUHU216HW,2013-02-12 16:31:00,
2013-02-12 08:36:00,43.7,41.3,30.34,SSW,203,3.4,4.7,91,0.00,,,0.00,WUHU216HW,2013-02-12 16:36:00,
2013-02-12 08:41:00,43.6,41.1,30.34,SSW,203,3.6,4.7,91,0.00,,,0.00,WUHU216HW,2013-02-12 16:41:00,
2013-02-12 08:46:00,43.6,41.4,30.34,SSW,203,3.6,4.3,92,0.00,,,0.00,WUHU216HW,2013-02-12 16:46:00,
2013-02-12 08:51:00,43.7,41.6,30.34,SSW,203,3.4,4.3,92,0.00,,,0.00,WUHU216HW,2013-02-12 16:51:00,
2013-02-12 08:56:00,43.7,41.6,30.34,South,180,3.4,4.3,92,0.00,,,0.00,WUHU216HW,2013-02-12 16:56:00,
2013-02-12 09:02:00,43.6,41.4,30.34,South,180,2.5,4.7,92,0.00,,,0.00,WUHU216HW,2013-02-12 17:02:00,
2013-02-12 09:07:00,43.6,41.4,30.34,South,180,2.2,4.7,92,0.00,,,0.00,WUHU216HW,2013-02-12 17:07:00,
2013-02-12 09:12:00,43.7,41.6,30.34,SSE,158,2.5,3.4,92,0.00,,,0.00,WUHU216HW,2013-02-12 17:12:00,
2013-02-12 09:17:00,43.6,41.4,30.34,SSE,158,2.7,3.1,92,0.00,,,0.00,WUHU216HW,2013-02-12 17:17:00,
2013-02-12 09:22:00,43.7,41.6,30.34,SSE,158,2.7,2.9,92,0.00,,,0.00,WUHU216HW,2013-02-12 17:22:00,
2013-02-12 09:27:00,43.6,41.4,30.34,SSE,158,2.9,3.1,92,0.00,,,0.00,WUHU216HW,2013-02-12 17:27:00,
2013-02-12 09:32:00,43.7,41.6,30.34,SSE,158,3.8,4.0,92,0.00,,,0.00,WUHU216HW,2013-02-12 17:32:00,
2013-02-12 09:37:00,43.7,41.6,30.34,SSE,158,2.5,4.0,92,0.00,,,0.00,WUHU216HW,2013-02-12 17:37:00,
2013-02-12 09:42:00,43.6,41.4,30.35,SSE,158,2.5,4.0,92,0.00,,,0.00,WUHU216HW,2013-02-12 17:42:00,
2013-02-12 09:47:00,43.6,41.4,30.35,SSE,158,2.5,3.8,92,0.00,,,0.00,WUHU216HW,2013-02-12 17:47:00,
2013-02-12 09:52:00,43.7,41.6,30.36,SE,135,2.2,3.8,92,0.00,,,0.00,WUHU216HW,2013-02-12 17:52:00,
2013-02-12 09:57:00,43.7,41.9,30.36,SSE,158,2.5,3.1,93,0.00,,,0.00,WUHU216HW,2013-02-12 17:57:00,
2013-02-12 10:04:00,44.1,41.9,30.36,SE,135,2.7,2.7,92,0.00,,,0.00,WUHU216HW,2013-02-12 18:04:00,
2013-02-12 10:09:00,43.9,41.8,30.36,SE,135,1.8,2.7,92,0.00,,,0.00,WUHU216HW,2013-02-12 18:09:00,
2013-02-12 10:14:00,44.1,41.9,30.36,SE,135,1.8,2.7,92,0.00,,,0.00,WUHU216HW,2013-02-12 18:14:00,
2013-02-12 10:19:00,44.1,41.9,30.36,SSE,158,2.5,2.5,92,0.00,,,0.00,WUHU216HW,2013-02-12 18:19:00,
2013-02-12 10:25:00,44.1,41.9,30.35,SE,135,4.3,4.3,92,0.00,,,0.00,WUHU216HW,2013-02-12 18:25:00,
2013-02-12 10:30:00,44.1,41.9,30.35,SSE,158,3.8,4.7,92,0.00,,,0.00,WUHU216HW,2013-02-12 18:30:00,
2013-02-12 10:35:00,43.9,42.0,30.36,SSE,158,2.9,4.7,93,0.00,,,0.00,WUHU216HW,2013-02-12 18:35:00,
2013-02-12 10:40:00,43.9,42.0,30.35,ESE,113,2.9,4.3,93,0.00,,,0.00,WUHU216HW,2013-02-12 18:40:00,
2013-02-12 10:45:00,43.7,41.9,30.35,ESE,113,3.4,4.3,93,0.00,,,0.00,WUHU216HW,2013-02-12 18:45:00,
2013-02-12 10:50:00,43.9,42.0,30.35,SE,135,3.4,4.3,93,0.00,,,0.00,WUHU216HW,2013-02-12 18:50:00,
2013-02-12 10:55:00,43.9,42.0,30.35,SE,135,3.8,4.5,93,0.00,,,0.00,WUHU216HW,2013-02-12 18:55:00,
2013-02-12 11:00:00,43.9,42.0,30.35,ESE,113,2.5,4.9,93,0.00,,,0.00,WUHU216HW,2013-02-12 19:00:00,
2013-02-12 11:05:00,43.9,42.0,30.35,East,90,3.8,4.9,93,0.00,,,0.00,WUHU216HW,2013-02-12 19:05:00,
2013-02-12 11:10:00,43.9,42.0,30.35,East,90,2.9,4.7,93,0.00,,,0.00,WUHU216HW,2013-02-12 19:10:00,
2013-02-12 11:15:00,43.9,42.0,30.35,ESE,113,2.0,4.7,93,0.00,,,0.00,WUHU216HW,2013-02-12 19:15:00,
2013-02-12 11:20:00,44.1,42.2,30.35,ESE,113,4.3,4.7,93,0.00,,,0.00,WUHU216HW,2013-02-12 19:20:00,
2013-02-12 11:25:00,44.1,42.2,30.35,ESE,113,3.4,4.7,93,0.00,,,0.00,WUHU216HW,2013-02-12 19:25:00,
2013-02-12 11:30:00,44.3,42.4,30.35,ESE,113,2.5,4.3,93,0.00,,,0.00,WUHU216HW,2013-02-12 19:30:00,
2013-02-12 11:35:00,44.3,42.4,30.35,East,90,2.9,3.6,93,0.00,,,0.00,WUHU216HW,2013-02-12 19:35:00,
2013-02-12 11:40:00,44.5,42.6,30.34,East,90,3.1,4.3,93,0.00,,,0.00,WUHU216HW,2013-02-12 19:40:00,
2013-02-12 11:45:00,44.5,42.6,30.35,East,90,2.7,4.3,93,0.00,,,0.00,WUHU216HW,2013-02-12 19:45:00,
2013-02-12 11:50:00,44.5,42.6,30.35,ESE,113,2.7,3.8,93,0.00,,,0.00,WUHU216HW,2013-02-12 19:50:00,
2013-02-12 11:56:00,44.5,42.6,30.34,ESE,113,2.5,3.8,93,0.00,,,0.00,WUHU216HW,2013-02-12 19:56:00,
2013-02-12 12:01:00,44.5,42.6,30.34,ESE,113,2.7,3.1,93,0.00,,,0.00,WUHU216HW,2013-02-12 20:01:00,
2013-02-12 12:06:00,44.5,42.6,30.34,East,90,3.8,3.8,93,0.00,,,0.00,WUHU216HW,2013-02-12 20:06:00,
2013-02-12 12:11:00,44.6,42.8,30.33,East,90,4.0,5.6,93,0.00,,,0.00,WUHU216HW,2013-02-12 20:11:00,
2013-02-12 12:16:00,44.6,42.8,30.33,ENE,68,3.8,5.6,93,0.00,,,0.00,WUHU216HW,2013-02-12 20:16:00,
2013-02-12 12:21:00,44.8,42.9,30.33,ESE,113,2.5,4.9,93,0.00,,,0.00,WUHU216HW,2013-02-12 20:21:00,
2013-02-12 12:26:00,45.0,43.1,30.33,SE,135,2.9,4.9,93,0.00,,,0.00,WUHU216HW,2013-02-12 20:26:00,
2013-02-12 12:31:00,45.0,43.1,30.33,ESE,113,2.5,3.4,93,0.00,,,0.00,WUHU216HW,2013-02-12 20:31:00,
2013-02-12 12:36:00,45.0,43.1,30.33,ESE,113,2.5,3.4,93,0.00,,,0.00,WUHU216HW,2013-02-12 20:36:00,
2013-02-12 12:41:00,45.0,43.1,30.32,ESE,113,3.6,4.0,93,0.00,,,0.00,WUHU216HW,2013-02-12 20:41:00,
2013-02-12 12:46:00,45.0,43.1,30.31,ESE,113,3.1,4.3,93,0.00,,,0.00,WUHU216HW,2013-02-12 20:46:00,
2013-02-12 12:51:00,45.2,43.3,30.31,East,90,3.6,4.5,93,0.00,,,0.00,WUHU216HW,2013-02-12 20:51:00,
2013-02-12 12:56:00,45.4,43.5,30.31,SE,135,4.9,4.9,93,0.00,,,0.00,WUHU216HW,2013-02-12 20:56:00,
2013-02-12 13:02:00,45.5,43.7,30.30,ESE,113,4.5,4.9,93,0.00,,,0.00,WUHU216HW,2013-02-12 21:02:00,
2013-02-12 13:07:00,45.5,43.7,30.30,SE,135,3.1,4.9,93,0.00,,,0.00,WUHU216HW,2013-02-12 21:07:00,
2013-02-12 13:12:00,45.5,43.4,30.30,ESE,113,4.0,5.4,92,0.00,,,0.00,WUHU216HW,2013-02-12 21:12:00,
2013-02-12 13:17:00,45.7,43.6,30.29,SE,135,5.4,5.6,92,0.00,,,0.00,WUHU216HW,2013-02-12 21:17:00,
2013-02-12 13:22:00,46.1,44.5,30.29,SE,135,4.5,6.3,94,0.00,,,0.00,WUHU216HW,2013-02-12 21:22:00,
2013-02-12 13:27:00,46.8,44.6,30.30,SE,135,3.4,6.3,92,0.00,,,0.00,WUHU216HW,2013-02-12 21:27:00,
2013-02-12 13:32:00,46.8,44.4,30.29,SE,135,4.9,5.1,91,0.00,,,0.00,WUHU216HW,2013-02-12 21:32:00,
2013-02-12 13:37:00,46.6,44.2,30.28,SE,135,5.8,6.3,91,0.00,,,0.00,WUHU216HW,2013-02-12 21:37:00,
2013-02-12 13:42:00,46.8,44.4,30.28,SSE,158,4.7,6.3,91,0.00,,,0.00,WUHU216HW,2013-02-12 21:42:00,
2013-02-12 13:47:00,46.8,44.1,30.28,SE,135,5.1,5.6,90,0.00,,,0.00,WUHU216HW,2013-02-12 21:47:00,
2013-02-12 13:52:00,47.0,44.6,30.28,SE,135,5.4,6.7,91,0.00,,,0.00,WUHU216HW,2013-02-12 21:52:00,
2013-02-12 13:58:00,47.0,44.0,30.28,SE,135,5.4,8.5,89,0.00,,,0.00,WUHU216HW,2013-02-12 21:58:00,
2013-02-12 14:03:00,47.0,44.0,30.28,SE,135,6.9,8.5,89,0.00,,,0.00,WUHU216HW,2013-02-12 22:03:00,
2013-02-12 14:08:00,47.0,44.0,30.28,SE,135,6.3,7.4,89,0.00,,,0.00,WUHU216HW,2013-02-12 22:08:00,
2013-02-12 14:13:00,47.0,44.3,30.27,SE,135,5.6,6.9,90,0.00,,,0.00,WUHU216HW,2013-02-12 22:13:00,
2013-02-12 14:18:00,47.2,44.5,30.28,SE,135,5.1,6.3,90,0.00,,,0.00,WUHU216HW,2013-02-12 22:18:00,
2013-02-12 14:23:00,47.3,44.0,30.27,SSE,158,5.4,6.9,88,0.00,,,0.00,WUHU216HW,2013-02-12 22:23:00,
2013-02-12 14:28:00,47.5,44.5,30.26,SE,135,7.6,7.6,89,0.00,,,0.00,WUHU216HW,2013-02-12 22:28:00,
2013-02-12 14:33:00,47.5,44.2,30.27,SSE,158,6.0,7.6,88,0.00,,,0.00,WUHU216HW,2013-02-12 22:33:00,
2013-02-12 14:38:00,47.3,44.0,30.27,SSE,158,6.5,7.6,88,0.00,,,0.00,WUHU216HW,2013-02-12 22:38:00,
2013-02-12 14:43:00,47.5,43.8,30.27,SSE,158,6.5,6.9,87,0.00,,,0.00,WUHU216HW,2013-02-12 22:43:00,
2013-02-12 14:49:00,47.5,43.8,30.27,South,180,6.3,7.4,87,0.00,,,0.00,WUHU216HW,2013-02-12 22:49:00,
2013-02-12 14:54:00,47.7,44.0,30.27,SE,135,6.7,7.4,87,0.00,,,0.00,WUHU216HW,2013-02-12 22:54:00,
2013-02-12 15:00:00,47.5,43.8,30.27,SE,135,6.9,7.8,87,0.00,,,0.00,WUHU216HW,2013-02-12 23:00:00,
2013-02-12 15:05:00,47.5,44.2,30.28,ESE,113,5.6,7.8,88,0.00,,,0.00,WUHU216HW,2013-02-12 23:05:00,
2013-02-12 15:10:00,47.7,44.4,30.28,ESE,113,4.0,7.6,88,0.00,,,0.00,WUHU216HW,2013-02-12 23:10:00,
2013-02-12 15:16:00,47.7,44.4,30.27,ESE,113,4.5,6.3,88,0.00,,,0.00,WUHU216HW,2013-02-12 23:16:00,
2013-02-12 15:21:00,47.5,44.2,30.27,SE,135,4.7,6.3,88,0.00,,,0.00,WUHU216HW,2013-02-12 23:21:00,
2013-02-12 15:26:00,47.5,44.2,30.27,SE,135,4.7,6.9,88,0.00,,,0.00,WUHU216HW,2013-02-12 23:26:00,
2013-02-12 15:31:00,47.5,44.2,30.28,SSE,158,5.4,6.9,88,0.00,,,0.00,WUHU216HW,2013-02-12 23:31:00,
2013-02-12 15:36:00,47.5,44.2,30.28,SE,135,4.0,6.9,88,0.00,,,0.00,WUHU216HW,2013-02-12 23:36:00,
2013-02-12 15:41:00,47.5,44.2,30.28,ESE,113,3.8,5.4,88,0.00,,,0.00,WUHU216HW,2013-02-12 23:41:00,
2013-02-12 15:46:00,47.3,44.0,30.27,SE,135,6.0,6.0,88,0.00,,,0.00,WUHU216HW,2013-02-12 23:46:00,
2013-02-12 15:51:00,47.3,44.0,30.28,SE,135,4.3,6.3,88,0.00,,,0.00,WUHU216HW,2013-02-12 23:51:00,
2013-02-12 15:56:00,47.3,44.4,30.28,SE,135,4.0,6.3,89,0.00,,,0.00,WUHU216HW,2013-02-12 23:56:00,
2013-02-12 16:01:00,47.2,44.2,30.28,SE,135,3.4,4.7,89,0.00,,,0.00,WUHU216HW,2013-02-13 00:01:00,
2013-02-12 16:06:00,47.2,44.2,30.28,SSE,158,3.4,4.5,89,0.00,,,0.00,WUHU216HW,2013-02-13 00:06:00,
2013-02-12 16:11:00,47.2,44.2,30.28,SSE,158,3.1,4.0,89,0.00,,,0.00,WUHU216HW,2013-02-13 00:11:00,
2013-02-12 16:16:00,47.2,44.2,30.28,SSW,203,3.6,4.5,89,0.00,,,0.00,WUHU216HW,2013-02-13 00:16:00,
2013-02-12 16:22:00,47.3,44.4,30.29,SSW,203,5.8,5.8,89,0.00,,,0.00,WUHU216HW,2013-02-13 00:22:00,
2013-02-12 16:27:00,47.3,44.4,30.29,SSW,203,7.4,9.2,89,0.00,,,0.00,WUHU216HW,2013-02-13 00:27:00,
2013-02-12 16:32:00,47.5,44.5,30.28,SSW,203,6.9,9.4,89,0.00,,,0.00,WUHU216HW,2013-02-13 00:32:00,
2013-02-12 16:37:00,47.3,44.4,30.27,SSW,203,6.0,9.4,89,0.00,,,0.00,WUHU216HW,2013-02-13 00:37:00,
2013-02-12 16:43:00,47.2,44.2,30.27,SSW,203,7.6,8.9,89,0.00,,,0.00,WUHU216HW,2013-02-13 00:43:00,
2013-02-12 16:48:00,47.2,44.5,30.27,SSW,203,6.0,8.9,90,0.00,,,0.00,WUHU216HW,2013-02-13 00:48:00,
2013-02-12 16:53:00,47.2,44.5,30.27,SSW,203,3.4,7.8,90,0.00,,,0.00,WUHU216HW,2013-02-13 00:53:00,
2013-02-12 16:58:00,47.2,44.5,30.27,South,180,3.4,6.3,90,0.00,,,0.00,WUHU216HW,2013-02-13 00:58:00,
2013-02-12 17:03:00,47.2,44.5,30.27,SE,135,2.2,4.0,90,0.00,,,0.00,WUHU216HW,2013-02-13 01:03:00,
2013-02-12 17:08:00,47.3,44.6,30.27,ESE,113,2.2,3.4,90,0.00,,,0.00,WUHU216HW,2013-02-13 01:08:00,
2013-02-12 17:13:00,47.2,44.5,30.27,ESE,113,3.4,4.3,90,0.00,,,0.00,WUHU216HW,2013-02-13 01:13:00,
2013-02-12 17:18:00,47.2,44.5,30.27,East,90,4.5,6.0,90,0.00,,,0.00,WUHU216HW,2013-02-13 01:18:00,
2013-02-12 17:23:00,47.0,44.3,30.27,East,90,2.9,6.0,90,0.00,,,0.00,WUHU216HW,2013-02-13 01:23:00,
2013-02-12 17:28:00,47.0,44.3,30.26,East,90,4.0,5.1,90,0.00,,,0.00,WUHU216HW,2013-02-13 01:28:00,
2013-02-12 17:33:00,47.0,44.3,30.26,SE,135,4.0,5.1,90,0.00,,,0.00,WUHU216HW,2013-02-13 01:33:00,
2013-02-12 17:38:00,46.8,44.4,30.26,SE,135,3.6,5.1,91,0.00,,,0.00,WUHU216HW,2013-02-13 01:38:00,
2013-02-12 17:43:00,46.8,44.4,30.25,SSE,158,5.1,5.4,91,0.00,,,0.00,WUHU216HW,2013-02-13 01:43:00,
2013-02-12 17:48:00,47.0,44.6,30.25,SSE,158,6.3,6.5,91,0.00,,,0.00,WUHU216HW,2013-02-13 01:48:00,
2013-02-12 17:54:00,47.2,44.5,30.25,SSE,158,6.7,6.9,90,0.00,,,0.00,WUHU216HW,2013-02-13 01:54:00,
2013-02-12 17:59:00,47.2,44.5,30.25,SSE,158,6.7,6.9,90,0.00,,,0.00,WUHU216HW,2013-02-13 01:59:00,
2013-02-12 18:04:00,47.2,44.5,30.25,SSE,158,6.0,6.9,90,0.00,,,0.00,WUHU216HW,2013-02-13 02:04:00,
2013-02-12 18:09:00,47.2,44.5,30.25,South,180,5.6,6.9,90,0.00,,,0.00,WUHU216HW,2013-02-13 02:09:00,
2013-02-12 18:14:00,47.2,44.7,30.25,SSE,158,5.8,6.9,91,0.00,,,0.00,WUHU216HW,2013-02-13 02:14:00,
2013-02-12 18:19:00,47.2,44.7,30.24,South,180,5.4,6.9,91,0.00,,,0.00,WUHU216HW,2013-02-13 02:19:00,
2013-02-12 18:24:00,47.0,44.6,30.24,SSE,158,5.4,6.5,91,0.00,,,0.00,WUHU216HW,2013-02-13 02:24:00,
2013-02-12 18:29:00,47.2,44.7,30.24,South,180,4.9,6.3,91,0.00,,,0.00,WUHU216HW,2013-02-13 02:29:00,
2013-02-12 18:35:00,47.2,44.7,30.25,South,180,3.8,6.7,91,0.00,,,0.00,WUHU216HW,2013-02-13 02:35:00,
2013-02-12 18:40:00,47.2,44.7,30.24,South,180,4.3,6.7,91,0.00,,,0.00,WUHU216HW,2013-02-13 02:40:00,
2013-02-12 18:45:00,47.2,44.7,30.25,SSW,203,4.3,4.7,91,0.00,,,0.00,WUHU216HW,2013-02-13 02:45:00,
2013-02-12 18:50:00,47.2,44.7,30.24,SSW,203,7.4,7.4,91,0.00,,,0.00,WUHU216HW,2013-02-13 02:50:00,
2013-02-12 18:55:00,47.2,44.7,30.24,SSW,203,4.3,8.9,91,0.00,,,0.00,WUHU216HW,2013-02-13 02:55:00,
2013-02-12 19:00:00,47.2,44.7,30.23,SSW,203,6.3,9.2,91,0.00,,,0.00,WUHU216HW,2013-02-13 03:00:00,
2013-02-12 19:05:00,47.3,44.6,30.23,SSW,203,6.9,9.2,90,0.00,,,0.00,WUHU216HW,2013-02-13 03:05:00,
2013-02-12 19:10:00,47.2,44.5,30.23,SSW,203,5.8,7.4,90,0.00,,,0.00,WUHU216HW,2013-02-13 03:10:00,
2013-02-12 19:15:00,47.3,44.6,30.23,SSW,203,7.4,7.6,90,0.00,,,0.00,WUHU216HW,2013-02-13 03:15:00,
2013-02-12 19:20:00,47.3,44.6,30.23,SSW,203,8.5,9.2,90,0.00,,,0.00,WUHU216HW,2013-02-13 03:20:00,
2013-02-12 19:25:00,47.2,44.7,30.24,SSW,203,6.0,9.2,91,0.00,,,0.00,WUHU216HW,2013-02-13 03:25:00,
2013-02-12 19:30:00,47.2,44.7,30.24,SSW,203,4.9,8.9,91,0.00,,,0.00,WUHU216HW,2013-02-13 03:30:00,
2013-02-12 19:36:00,47.2,44.7,30.24,South,180,5.6,6.9,91,0.00,,,0.00,WUHU216HW,2013-02-13 03:36:00,
2013-02-12 19:41:00,47.2,44.7,30.24,SSW,203,4.7,6.9,91,0.00,,,0.00,WUHU216HW,2013-02-13 03:41:00,
2013-02-12 19:46:00,47.2,44.7,30.24,SSW,203,4.7,7.6,91,0.00,,,0.00,WUHU216HW,2013-02-13 03:46:00,
2013-02-12 19:51:00,47.2,44.7,30.24,SSW,203,6.7,9.6,91,0.00,,,0.00,WUHU216HW,2013-02-13 03:51:00,
2013-02-12 19:56:00,47.2,44.7,30.24,South,180,6.9,9.6,91,0.00,,,0.00,WUHU216HW,2013-02-13 03:56:00,
2013-02-12 20:01:00,47.0,44.6,30.24,SSW,203,4.7,7.6,91,0.00,,,0.00,WUHU216HW,2013-02-13 04:01:00,
2013-02-12 20:06:00,47.0,44.6,30.23,SSW,203,4.3,6.9,91,0.00,,,0.00,WUHU216HW,2013-02-13 04:06:00,
2013-02-12 20:11:00,47.2,44.7,30.23,SSW,203,4.7,6.3,91,0.00,,,0.00,WUHU216HW,2013-02-13 04:11:00,
2013-02-12 20:16:00,47.2,44.7,30.23,SSW,203,5.4,6.3,91,0.00,,,0.00,WUHU216HW,2013-02-13 04:16:00,
2013-02-12 20:21:00,47.0,44.6,30.23,SSW,203,4.3,6.0,91,0.00,,,0.00,WUHU216HW,2013-02-13 04:21:00,
2013-02-12 20:27:00,47.0,44.6,30.23,South,180,4.0,6.0,91,0.00,,,0.00,WUHU216HW,2013-02-13 04:27:00,
2013-02-12 20:32:00,47.0,44.6,30.23,South,180,3.4,5.6,91,0.00,,,0.00,WUHU216HW,2013-02-13 04:32:00,
2013-02-12 20:37:00,47.0,44.6,30.22,SSW,203,2.9,3.8,91,0.00,,,0.00,WUHU216HW,2013-02-13 04:37:00,
2013-02-12 20:42:00,47.0,44.6,30.22,SSE,158,2.9,3.8,91,0.00,,,0.00,WUHU216HW,2013-02-13 04:42:00,
2013-02-12 20:48:00,46.8,44.4,30.23,SSE,158,2.5,3.4,91,0.00,,,0.00,WUHU216HW,2013-02-13 04:48:00,
2013-02-12 20:53:00,46.8,44.4,30.22,SSE,158,2.9,3.4,91,0.00,,,0.00,WUHU216HW,2013-02-13 04:53:00,
2013-02-12 20:58:00,46.8,44.4,30.22,SE,135,2.0,3.4,91,0.00,,,0.00,WUHU216HW,2013-02-13 04:58:00,
2013-02-12 21:04:00,46.8,44.4,30.22,SE,135,2.5,3.4,91,0.00,,,0.00,WUHU216HW,2013-02-13 05:04:00,
2013-02-12 21:05:00,46.8,44.4,30.22,SE,135,2.5,3.4,91,0.00,,,0.00,WUHU216HW,2013-02-13 05:05:00,
2013-02-12 21:09:00,46.8,44.4,30.23,SE,135,2.0,3.4,91,0.00,,,0.00,WUHU216HW,2013-02-13 05:09:00,
2013-02-12 21:15:00,46.6,44.2,30.22,SE,135,2.9,3.4,91,0.00,,,0.00,WUHU216HW,2013-02-13 05:15:00,
2013-02-12 21:16:00,46.6,44.5,30.23,SE,135,2.7,3.4,92,0.00,,,0.00,WUHU216HW,2013-02-13 05:16:00,
2013-02-12 21:22:00,46.8,44.4,30.23,SSE,158,3.6,3.8,91,0.00,,,0.00,WUHU216HW,2013-02-13 05:22:00,
2013-02-12 21:27:00,46.6,44.2,30.23,SE,135,2.7,4.3,91,0.00,,,0.00,WUHU216HW,2013-02-13 05:27:00,
2013-02-12 21:32:00,46.6,44.5,30.23,SSE,158,3.6,4.3,92,0.00,,,0.00,WUHU216HW,2013-02-13 05:32:00,
2013-02-12 21:37:00,46.6,44.5,30.22,SSE,158,2.9,3.8,92,0.00,,,0.00,WUHU216HW,2013-02-13 05:37:00,
2013-02-12 21:44:00,46.6,44.5,30.23,South,180,2.7,4.7,92,0.00,,,0.00,WUHU216HW,2013-02-13 05:44:00,
2013-02-12 21:49:00,46.8,44.6,30.23,SSE,158,2.5,4.7,92,0.00,,,0.00,WUHU216HW,2013-02-13 05:49:00,
2013-02-12 21:54:00,46.8,44.4,30.23,ESE,113,2.5,4.7,91,0.00,,,0.00,WUHU216HW,2013-02-13 05:54:00,
2013-02-12 21:59:00,46.8,44.4,30.23,SE,135,2.9,4.7,91,0.00,,,0.00,WUHU216HW,2013-02-13 05:59:00,
2013-02-12 22:04:00,46.8,44.4,30.23,SSW,203,2.2,3.8,91,0.00,,,0.00,WUHU216HW,2013-02-13 06:04:00,
2013-02-12 22:09:00,47.0,44.6,30.23,SE,135,4.0,8.9,91,0.00,,,0.00,WUHU216HW,2013-02-13 06:09:00,
2013-02-12 22:14:00,46.8,44.4,30.24,South,180,1.8,8.9,91,0.00,,,0.00,WUHU216HW,2013-02-13 06:14:00,
2013-02-12 22:19:00,46.8,44.4,30.24,SW,225,2.9,4.0,91,0.00,,,0.00,WUHU216HW,2013-02-13 06:19:00,
2013-02-12 22:24:00,46.8,44.6,30.25,WSW,248,1.8,4.3,92,0.00,,,0.00,WUHU216HW,2013-02-13 06:24:00,
2013-02-12 22:29:00,46.8,44.6,30.24,SSW,203,4.0,4.3,92,0.00,,,0.00,WUHU216HW,2013-02-13 06:29:00,
2013-02-12 22:34:00,46.6,44.7,30.25,SW,225,2.0,4.3,93,0.00,,,0.00,WUHU216HW,2013-02-13 06:34:00,
2013-02-12 22:39:00,46.4,44.6,30.25,SW,225,2.2,4.0,93,0.00,,,0.00,WUHU216HW,2013-02-13 06:39:00,
2013-02-12 22:44:00,46.4,44.6,30.25,SSW,203,1.8,2.5,93,0.00,,,0.00,WUHU216HW,2013-02-13 06:44:00,
2013-02-12 22:49:00,46.4,44.8,30.24,SW,225,4.7,4.7,94,0.00,,,0.00,WUHU216HW,2013-02-13 06:49:00,
2013-02-12 22:54:00,46.3,44.6,30.24,SSW,203,9.6,10.3,94,0.00,,,0.00,WUHU216HW,2013-02-13 06:54:00,
2013-02-12 22:59:00,46.1,44.5,30.24,SSW,203,7.2,10.3,94,0.00,,,0.00,WUHU216HW,2013-02-13 06:59:00,
2013-02-12 23:04:00,45.9,44.3,30.24,SSW,203,6.9,9.8,94,0.00,,,0.00,WUHU216HW,2013-02-13 07:04:00,
2013-02-12 23:09:00,45.9,44.6,30.24,SSW,203,7.6,8.7,95,0.00,,,0.00,WUHU216HW,2013-02-13 07:09:00,
2013-02-12 23:14:00,45.9,44.3,30.24,SSW,203,8.5,8.7,94,0.00,,,0.00,WUHU216HW,2013-02-13 07:14:00,
2013-02-12 23:20:00,45.9,44.3,30.25,SSW,203,10.5,10.5,94,0.00,,,0.00,WUHU216HW,2013-02-13 07:20:00,
2013-02-12 23:25:00,45.9,44.3,30.24,South,180,8.5,10.5,94,0.00,,,0.00,WUHU216HW,2013-02-13 07:25:00,
2013-02-12 23:30:00,45.9,44.3,30.24,SSW,203,12.3,16.3,94,0.00,,,0.00,WUHU216HW,2013-02-13 07:30:00,
2013-02-12 23:35:00,46.1,44.5,30.24,SW,225,13.4,16.3,94,0.00,,,0.00,WUHU216HW,2013-02-13 07:35:00,
2013-02-12 23:40:00,46.1,44.2,30.24,SSW,203,16.8,16.8,93,0.00,,,0.00,WUHU216HW,2013-02-13 07:40:00,
2013-02-12 23:45:00,46.3,43.8,30.24,SSW,203,17.2,18.3,91,0.00,,,0.00,WUHU216HW,2013-02-13 07:45:00,
2013-02-12 23:50:00,46.6,43.9,30.24,SSW,203,10.3,18.3,90,0.00,,,0.00,WUHU216HW,2013-02-13 07:50:00,
2013-02-12 23:55:00,46.8,43.8,30.25,SSW,203,8.1,15.4,89,0.00,,,0.00,WUHU216HW,2013-02-13 07:55:00,